Weather History for Guernsey, United Kingdom

Change the Weather History Date:

Monday, December 3, 2012

  Actual Average Record
Temperature  
Mean Temperature 48 °F -  
Max Temperature 53 °F 47 °F 53 °F (1996)
Min Temperature 44 °F 42 °F 33 °F (1998)
Degree Days  
Heating Degree Days 16    
Moisture  
Dew Point 46 °F    
Average Humidity 88    
Maximum Humidity 100    
Minimum Humidity 71    
Precipitation  
Precipitation 0.12 in - - ()
Sea Level Pressure  
Sea Level Pressure 29.88 in    
Wind  
Wind Speed 19 mph ()    
Max Wind Speed 28 mph    
Max Gust Speed 38 mph    
Visibility 5.9 miles    
Events Rain    
Averages and records for this station are not official NWS values.
T = Trace of Precipitation, MM = Missing Value Source: Averaged Metar Reports

Daily Weather History Graph

Daily Weather History Graph

Search for Another Location

Airport:

Trip Planner

Search our weather history database for the weather conditions in past years. The results will help you decide how hot, cold, wet, or windy it might be!

Date:

Astronomy

Dec. 03, 2012 Rise Set
Actual Time 7:47 AM GMT 4:12 PM GMT
Civil Twilight 7:10 AM GMT 4:49 PM GMT
Nautical Twilight 6:30 AM GMT 5:30 PM GMT
Astronomical Twilight 5:51 AM GMT 6:08 PM GMT
Moon 8:59 PM GMT (12/3) 10:51 AM GMT (12/3)
Length of Visible Light 9h 39m
Length of Day
8h 25m
Waning Gibbous, 80% of the Moon is Illuminated
Dec 3
Waning Gibbous
Dec 6
Last Quarter
Dec 13
New
Dec 20
First Quarter
Dec 28
Full

Hourly Weather History & Observations

Time (GMT) Temp. Windchill Dew Point Humidity Pressure Visibility Wind Dir Wind Speed Gust Speed Precip Events Conditions
12:00 AM 52 °F - 51 °F 96% 30.00 in 12 mi West 17.3 mph - - Rain Light Drizzle
3:00 AM 53 °F - 52 °F 96% 29.96 in 3 mi WSW 19.6 mph - - Rain Light Rain
3:50 AM 51.8 °F - 51.8 °F 100% 29.92 in 2.2 mi WSW 25.3 mph - N/A Rain Rain
4:20 AM 51.8 °F - 51.8 °F 100% 29.92 in 1.9 mi WSW 24.2 mph - N/A Rain Light Rain
4:50 AM 51.8 °F - 51.8 °F 100% 29.92 in 1.4 mi WSW 26.5 mph - N/A Rain Light Rain
5:20 AM 53.6 °F - 53.6 °F 100% 29.92 in 3.1 mi West 25.3 mph - N/A   Light Drizzle
5:50 AM 53.6 °F - 53.6 °F 100% 29.89 in 1.2 mi West 26.5 mph - N/A   Drizzle
6:00 AM 53 °F - 53 °F 100% 29.91 in 1 mi West 26.5 mph - - Rain Drizzle
6:20 AM 53.6 °F - 53.6 °F 100% 29.89 in 6.2 mi West 27.6 mph - N/A   Light Drizzle
6:50 AM 53.6 °F - 53.6 °F 100% 29.89 in 6.2 mi West 24.2 mph - N/A   Mostly Cloudy
7:20 AM 51.8 °F - 51.8 °F 100% 29.89 in 6.2 mi West 25.3 mph - N/A   Scattered Clouds
7:50 AM 51.8 °F - 50.0 °F 94% 29.92 in 6.2 mi West 23.0 mph - N/A   Scattered Clouds
8:20 AM 51.8 °F - 50.0 °F 94% 29.92 in 6.2 mi West 23.0 mph - N/A   Scattered Clouds
8:50 AM 51.8 °F - 50.0 °F 94% 29.92 in 6.2 mi West 26.5 mph - N/A   Scattered Clouds
9:00 AM 52 °F - 49 °F 88% 29.92 in 11 mi West 26.5 mph - -   Partly Cloudy
9:20 AM 51.8 °F - 48.2 °F 88% 29.92 in 6.2 mi West 26.5 mph 38.0 mph N/A   Scattered Clouds
9:50 AM 51.8 °F - 44.6 °F 76% 29.92 in 6.2 mi West 27.6 mph - N/A   Scattered Clouds
10:20 AM 51.8 °F - 42.8 °F 71% 29.92 in 6.2 mi West 27.6 mph - N/A   Scattered Clouds
10:50 AM 50.0 °F - 44.6 °F 82% 29.92 in 6.2 mi West 25.3 mph - N/A   Scattered Clouds
11:20 AM 50.0 °F - 44.6 °F 82% 29.92 in 6.2 mi West 26.5 mph - N/A   Scattered Clouds
11:50 AM 50.0 °F - 44.6 °F 82% 29.92 in 6.2 mi West 23.0 mph - N/A   Scattered Clouds
12:00 PM 51 °F - 44 °F 71% 29.94 in 12 mi West 23.0 mph - -   Partly Cloudy
12:20 PM 50.0 °F - 42.8 °F 76% 29.92 in 6.2 mi West 23.0 mph - N/A   Partly Cloudy
12:50 PM 50.0 °F - 42.8 °F 76% 29.92 in 6.2 mi West 19.6 mph - N/A   Partly Cloudy
1:20 PM 50.0 °F - 42.8 °F 76% 29.92 in 6.2 mi West 17.3 mph - N/A   Partly Cloudy
1:50 PM 50.0 °F - 42.8 °F 76% 29.89 in 6.2 mi West 15.0 mph - N/A   Partly Cloudy
2:20 PM 50.0 °F - 42.8 °F 76% 29.89 in 6.2 mi West 13.8 mph - N/A   Partly Cloudy
2:50 PM 50.0 °F - 42.8 °F 76% 29.86 in 6.2 mi West 15.0 mph - N/A   Scattered Clouds
3:00 PM 50 °F - 43 °F 71% 29.89 in 19 mi West 15.0 mph - -   Partly Cloudy
3:20 PM 50.0 °F - 42.8 °F 76% 29.86 in 6.2 mi West 11.5 mph - N/A   Scattered Clouds
3:50 PM 50.0 °F - 44.6 °F 82% 29.83 in 6.2 mi WSW 6.9 mph - N/A Rain Light Rain
4:20 PM 48.2 °F - 44.6 °F 87% 29.83 in 5.0 mi WSW 10.4 mph - N/A Rain Rain
4:50 PM 46.4 °F 41.9 °F 44.6 °F 93% 29.83 in 6.2 mi West 9.2 mph - N/A Rain Light Rain
5:20 PM 46.4 °F 41.1 °F 44.6 °F 93% 29.80 in 5.0 mi West 11.5 mph - N/A Rain Rain
5:50 PM 46.4 °F 44.3 °F 44.6 °F 93% 29.80 in 5.6 mi WSW 4.6 mph - N/A Rain Light Rain
6:00 PM 46 °F - 45 °F 93% 29.81 in 6 mi WSW 4.6 mph - - Rain Light Rain
6:20 PM 46.4 °F 44.3 °F 44.6 °F 93% 29.77 in 3.7 mi NW 4.6 mph - N/A Rain Rain
6:50 PM 44.6 °F 37.4 °F 44.6 °F 100% 29.77 in 2.5 mi NNW 16.1 mph 27.6 mph N/A Rain Rain
7:20 PM 44.6 °F 36.9 °F 42.8 °F 93% 29.80 in 5.0 mi NNW 18.4 mph - N/A Rain Rain
7:50 PM 44.6 °F 38.1 °F 42.8 °F 93% 29.80 in 6.2 mi NNW 13.8 mph - N/A   Scattered Clouds
8:20 PM 44.6 °F 38.4 °F 41.0 °F 87% 29.80 in 6.2 mi NW 12.7 mph - N/A   Mostly Cloudy
8:50 PM 44.6 °F 37.2 °F 41.0 °F 87% 29.80 in 6.2 mi WNW 17.3 mph - N/A   Scattered Clouds
9:00 PM 45 °F - 40 °F 78% 29.81 in 28 mi WNW 17.3 mph - -   Partly Cloudy
9:20 PM 46.4 °F 39.8 °F 41.0 °F 81% 29.77 in 6.2 mi WNW 16.1 mph - N/A   Scattered Clouds